Location: Northern Prairie Star Party
(53.2167°N, 112.5333°W)
Time: 03:22:58
(UTC-06:00)

Amateur Radio Satellites - All Passes

Search period start: 26 March 2017 02:52
Search period end: 27 March 2017 02:52
Location: Northern Prairie Star Party, 53.2167°N, 112.5333°W

Satellite Date Start Highest point End Downlink Frequencies (MHz)
Time Altitude Azimuth
DUCHIFAT 1 26 Mar 02:57:15 03:00:35 23° 300° (WNW) 03:03:54 145.980
DX 1 26 Mar 03:00:53 03:02:42 12° 274° (W) 03:04:30 434.975-435.025
CUBESAT XI-V 26 Mar 03:09:44 03:10:22 10° 48° (NE) 03:10:59 437.345
BUGSAT 1 26 Mar 03:15:36 03:19:27 35° 295° (WNW) 03:23:14 437.445
BEESAT 26 Mar 03:29:02 03:33:49 75° 255° (WSW) 03:38:37 436.000
BEESAT 3 26 Mar 03:35:21 03:37:57 16° 353° (N) 03:40:34 437.485
KKS-1 26 Mar 03:38:44 03:42:05 21° 57° (ENE) 03:45:27 437.445
ITUPSAT 1 26 Mar 03:44:58 03:49:42 57° 259° (WSW) 03:54:26 437.325
NANOSAT C BR1 26 Mar 03:45:41 03:45:46 10° 311° (NW) 03:45:51 145.865
BEESAT 2 26 Mar 03:48:57 03:51:47 18° 347° (NNW) 03:54:38 435.950
MOZHAYETS 4 26 Mar 03:51:34 03:56:10 80° 72° (ENE) 04:00:47
AO-7 26 Mar 03:53:26 03:59:53 24° 88° (E) 04:06:16 .
Oscar 19 26 Mar 03:58:14 04:03:16 53° 293° (WNW) 04:08:17 437.125/150
ITAMSAT 1 26 Mar 04:04:47 04:09:11 26° 93° (E) 04:13:31 435.822/435.867
ISS 26 Mar 04:07:06 04:09:26 18° 214° (SW) 04:11:46 437.550
Gurwin Techsat 1B 26 Mar 04:07:34 04:12:54 72° 289° (WNW) 04:18:12 435.225
Tancredo 1 26 Mar 04:10:07 04:12:07 15° 216° (SW) 04:14:05 437.200
AO-85 26 Mar 04:10:16 04:13:30 23° 23° (NNE) 04:16:43 145.980
STARS 26 Mar 04:16:28 04:19:55 22° 58° (ENE) 04:23:22 437.465
O/OREOS (USA 219) 26 Mar 04:29:54 04:33:36 24° 256° (WSW) 04:37:17 437.305
CUBESAT XI-V 26 Mar 04:42:18 04:46:44 50° 68° (ENE) 04:51:11 437.345
M-CUBED/EXP-1 PRIME 26 Mar 04:50:12 04:52:33 15° 46° (NE) 04:55:01 437.505
BEESAT 26 Mar 05:10:30 05:12:28 12° 275° (W) 05:14:24 436.000
KKS-1 26 Mar 05:13:48 05:18:15 67° 257° (WSW) 05:22:45 437.445
BEESAT 3 26 Mar 05:13:57 05:16:55 19° 17° (NNE) 05:19:53 437.485
BEESAT 2 26 Mar 05:28:10 05:30:56 17° 11° (N) 05:33:43 435.950
MOZHAYETS 4 26 Mar 05:31:03 05:33:55 16° 273° (W) 05:36:48
Oscar 19 26 Mar 05:39:23 05:41:33 13° 314° (NW) 05:43:43 437.125/150
ITAMSAT 1 26 Mar 05:43:53 05:49:01 58° 292° (WNW) 05:54:06 435.822/435.867
AO-7 26 Mar 05:45:30 05:53:52 85° 110° (ESE) 06:02:12 .
Gurwin Techsat 1B 26 Mar 05:48:43 05:52:01 17° 310° (NW) 05:55:19 435.225
AO-85 26 Mar 05:50:28 05:54:25 86° 48° (NE) 05:58:23 145.980
STARS 26 Mar 05:51:32 05:55:55 60° 258° (WSW) 06:00:21 437.465
CUBESAT XI-V 26 Mar 06:20:34 06:24:22 25° 268° (W) 06:28:12 437.345
M-CUBED/EXP-1 PRIME 26 Mar 06:22:32 06:26:20 85° 70° (ENE) 06:30:30 437.505
XW-2D 26 Mar 06:41:09 06:43:18 15° 89° (E) 06:45:26 145.860 - 145.880
NUDT-PHONESAT 26 Mar 06:42:58 06:44:27 12° 87° (E) 06:45:55 437.300
XW-2B 26 Mar 06:46:52 06:49:17 16° 90° (E) 06:51:40 145.730 - 145.750
KAITUO 1B 26 Mar 06:49:11 06:51:12 14° 88° (E) 06:53:13 145.475/437.950
BEESAT 3 26 Mar 06:51:24 06:55:21 51° 39° (NE) 06:59:17 437.485
XW-2C 26 Mar 06:56:43 06:59:34 20° 92° (E) 07:02:24 145.795 - 145.815
STRAND 1 26 Mar 06:59:24 07:04:11 40° 63° (ENE) 07:08:59 437.568
DOVE 4 26 Mar 07:02:38 07:07:36 39° 95° (E) 07:12:31 437.250
BEESAT 2 26 Mar 07:05:55 07:09:44 37° 34° (NE) 07:13:33 435.950
YUBILEINY 26 Mar 07:15:27 07:22:12 26° 76° (ENE) 07:28:55 435.215
ITAMSAT 1 26 Mar 07:24:55 07:27:29 14° 313° (NW) 07:30:03 435.822/435.867
CUTE-I 26 Mar 07:29:55 07:35:00 41° 97° (E) 07:40:01 437.470
AO-85 26 Mar 07:31:57 07:34:15 15° 246° (WSW) 07:36:35 145.980
AO-7 26 Mar 07:38:48 07:45:57 34° 314° (NW) 07:53:06 .
XW-2F 26 Mar 07:48:27 07:52:11 65° 102° (ESE) 07:55:54 145.980 - 146.000
LilacSat-2 26 Mar 07:49:02 07:52:49 71° 103° (ESE) 07:56:35 437.200
FO-29 26 Mar 07:56:26 07:58:51 12° 35° (NE) 08:01:11 435.910
M-CUBED/EXP-1 PRIME 26 Mar 07:59:44 08:01:30 13° 269° (W) 08:03:19 437.505
HO-68 26 Mar 08:14:03 08:20:12 30° 92° (E) 08:26:20 435.675
XW-2D 26 Mar 08:14:11 08:17:55 64° 288° (WNW) 08:21:38 145.860 - 145.880
NUDT-PHONESAT 26 Mar 08:15:12 08:18:54 77° 285° (WNW) 08:22:34 437.300
CUBEBUG 2 26 Mar 08:19:16 08:21:18 13° 84° (E) 08:23:17 437.445
XW-2B 26 Mar 08:20:08 08:23:51 57° 289° (WNW) 08:27:31 145.730 - 145.750
KAITUO 1B 26 Mar 08:21:59 08:25:40 65° 287° (WNW) 08:29:20 145.475/437.950
BEESAT 3 26 Mar 08:29:17 08:32:48 29° 239° (WSW) 08:36:18 437.485
XW-2C 26 Mar 08:30:23 08:34:00 44° 291° (WNW) 08:37:34 145.795 - 145.815
XW-2A 26 Mar 08:33:33 08:36:41 33° 97° (E) 08:39:46 145.665 - 145.685
SEEDS 26 Mar 08:33:52 08:37:10 22° 92° (E) 08:40:27 437.485
STRAND 1 26 Mar 08:38:36 08:43:24 39° 263° (W) 08:48:15 437.568
CUTE 1.7 + AOD 2 26 Mar 08:39:38 08:43:31 35° 96° (E) 08:47:23 437.475
DOVE 4 26 Mar 08:40:20 08:45:19 42° 295° (WNW) 08:50:17 437.250
PRISM 26 Mar 08:43:33 08:46:23 18° 57° (ENE) 08:49:15 437.425
BEESAT 2 26 Mar 08:43:43 08:47:37 45° 234° (SW) 08:51:29 435.950
AO-73 26 Mar 08:58:23 08:58:39 10° 83° (E) 08:58:54 145.935
NO-84 26 Mar 09:08:45 09:11:27 41° 150° (SSE) 09:14:14 435.350 FM
YUBILEINY 26 Mar 09:09:08 09:17:55 90° 280° (W) 09:26:42 435.215
CUTE-I 26 Mar 09:10:05 09:15:04 40° 297° (WNW) 09:20:02 437.470
TIGRISAT 26 Mar 09:14:51 09:18:20 21° 58° (ENE) 09:21:48 435.000
UWE-3 26 Mar 09:21:30 09:25:20 29° 93° (E) 09:29:04 435.000/436.395/437.385
XW-2F 26 Mar 09:23:35 09:25:56 16° 301° (WNW) 09:28:16 145.980 - 146.000
LilacSat-2 26 Mar 09:24:24 09:26:39 15° 302° (WNW) 09:28:53 437.200
UNISAT 6 26 Mar 09:24:27 09:28:18 26° 61° (ENE) 09:32:08 437.425
AO-7 26 Mar 09:32:08 09:36:22 15° 340° (NNW) 09:40:35 .
FO-29 26 Mar 09:35:20 09:42:05 35° 57° (ENE) 09:48:20 435.910
NUDT-PHONESAT 26 Mar 09:51:14 09:52:10 11° 305° (NW) 09:53:06 437.300
CUBEBUG 2 26 Mar 09:54:10 09:58:42 87° 109° (ESE) 10:03:02 437.445
AAUSAT CUBESAT 2 26 Mar 09:54:18 09:58:27 67° 102° (ESE) 10:02:35 437.432
Oscar 11 26 Mar 09:56:08 10:00:00 31° 95° (E) 10:03:50 .
HO-68 26 Mar 10:01:26 10:08:35 74° 293° (WNW) 10:15:44 435.675
ZACube-1 26 Mar 10:02:54 10:07:01 43° 98° (E) 10:11:01 437.345
XW-2A 26 Mar 10:06:35 10:09:20 23° 296° (WNW) 10:12:03 145.665 - 145.685
SEEDS 26 Mar 10:09:04 10:13:07 50° 290° (WNW) 10:17:10 437.485
CUTE 1.7 + AOD 2 26 Mar 10:15:34 10:19:19 32° 295° (WNW) 10:23:05 437.475
PRISM 26 Mar 10:17:13 10:21:16 67° 258° (WSW) 10:25:22 437.425
DOVE 4 26 Mar 10:20:46 10:21:45 10° 315° (NW) 10:22:43 437.250
PCSat 26 Mar 10:20:47 10:25:21 28° 112° (ESE) 10:29:57 145.827
POLYITAN 1 26 Mar 10:28:33 10:30:26 13° 52° (NE) 10:32:19 437.675
AO-73 26 Mar 10:31:27 10:35:44 74° 103° (ESE) 10:39:54 145.935
QB50P2 26 Mar 10:32:38 10:34:57 14° 54° (NE) 10:37:16 145.880/145.840
DUCHIFAT 1 26 Mar 10:45:09 10:47:32 15° 54° (NE) 10:49:54 145.980
NO-84 26 Mar 10:46:03 10:48:55 65° 351° (N) 10:51:55 435.350 FM
TIGRISAT 26 Mar 10:49:54 10:54:36 71° 257° (WSW) 10:59:15 435.000
CUTE-I 26 Mar 10:53:04 10:53:47 10° 319° (NW) 10:54:32 437.470
UWE-3 26 Mar 10:57:49 11:01:55 39° 294° (WNW) 11:05:52 435.000/436.395/437.385
UNISAT 6 26 Mar 11:00:08 11:04:45 55° 260° (W) 11:09:20 437.425
YUBILEINY 26 Mar 11:08:44 11:16:02 28° 305° (NW) 11:23:21 435.215
DELFI C3 26 Mar 11:16:17 11:20:15 63° 101° (ESE) 11:24:13 145.870
AIST 2D 26 Mar 11:18:10 11:21:28 38° 69° (ENE) 11:24:47 435.315
FO-29 26 Mar 11:18:56 11:26:43 72° 257° (WSW) 11:33:55 435.910
AO-7 26 Mar 11:22:51 11:25:49 12° 7° (N) 11:28:46 .
LO-87 26 Mar 11:23:10 11:24:24 11° 87° (E) 11:25:36 145.935 - 145.965
NANOSAT C BR1 26 Mar 11:29:12 11:33:04 34° 65° (ENE) 11:36:56 145.865
AAUSAT CUBESAT 2 26 Mar 11:30:38 11:33:30 19° 302° (WNW) 11:36:23 437.432
CUBEBUG 2 26 Mar 11:31:52 11:34:41 17° 305° (NW) 11:37:28 437.445
Oscar 11 26 Mar 11:32:14 11:36:12 37° 294° (WNW) 11:40:09 .
EO-79 26 Mar 11:33:27 11:37:27 40° 67° (ENE) 11:41:28 145.935-145.965
ZACube-1 26 Mar 11:39:32 11:43:08 27° 298° (WNW) 11:46:40 437.345
HO-68 26 Mar 11:49:58 11:55:19 23° 315° (NW) 12:00:39 435.675
POLYITAN 1 26 Mar 12:01:12 12:05:28 71° 72° (ENE) 12:09:46 437.675
PCSat 26 Mar 12:02:58 12:08:24 68° 314° (NW) 12:13:51 145.827
Oscar 19 26 Mar 12:05:26 12:08:34 17° 50° (NE) 12:11:43 437.125/150
QB50P2 26 Mar 12:05:48 12:10:06 83° 74° (ENE) 12:14:25 145.880/145.840
AO-73 26 Mar 12:08:39 12:11:29 18° 303° (WNW) 12:14:16 145.935
ESTCUBE 1 26 Mar 12:12:48 12:16:24 23° 92° (E) 12:19:59 437.505/2401.250
DUCHIFAT 1 26 Mar 12:18:19 12:22:35 86° 77° (ENE) 12:26:53 145.980
Gurwin Techsat 1B 26 Mar 12:18:39 12:21:28 15° 47° (NE) 12:24:16 435.225
NO-84 26 Mar 12:23:40 12:26:37 71° 12° (NNE) 12:29:45 435.350 FM
TIGRISAT 26 Mar 12:30:38 12:32:07 11° 276° (W) 12:33:36 435.000
BUGSAT 1 26 Mar 12:35:18 12:39:25 50° 69° (ENE) 12:43:34 437.445
SPROUT 26 Mar 12:37:03 12:38:46 12° 85° (E) 12:40:28 437.525
RS-15 26 Mar 12:51:49 13:02:09 35° 106° (ESE) 13:12:40 29.354- 29.394
DELFI C3 26 Mar 12:51:55 12:54:40 18° 301° (WNW) 12:57:25 145.870
AIST 2D 26 Mar 12:52:05 12:54:51 21° 268° (W) 12:57:36 435.315
LO-87 26 Mar 12:54:42 12:58:23 81° 286° (WNW) 13:02:02 145.935 - 145.965
NANOSAT C BR1 26 Mar 13:04:54 13:08:47 33° 264° (W) 13:12:42 145.865
DX 1 26 Mar 13:05:22 13:06:47 11° 85° (E) 13:08:13 434.975-435.025
FO-29 26 Mar 13:07:42 13:12:50 19° 277° (W) 13:17:47 435.910
EO-79 26 Mar 13:09:36 13:13:20 29° 265° (W) 13:17:05 145.935-145.965
AO-7 26 Mar 13:09:43 13:15:38 22° 34° (NE) 13:21:33 .
VELOX 1 26 Mar 13:25:48 13:29:57 36° 97° (E) 13:34:05 145.980
POLYITAN 1 26 Mar 13:38:58 13:41:45 17° 271° (W) 13:44:32 437.675
Oscar 19 26 Mar 13:42:01 13:47:07 75° 71° (ENE) 13:52:16 437.125/150
QB50P2 26 Mar 13:44:08 13:46:29 14° 273° (W) 13:48:50 145.880/145.840
UKube-1 26 Mar 13:44:27 13:47:35 19° 91° (E) 13:50:41 .
PCSat 26 Mar 13:48:14 13:52:45 25° 337° (NNW) 13:57:16 145.827
ESTCUBE 1 26 Mar 13:49:06 13:53:31 54° 291° (WNW) 13:57:55 437.505/2401.250
50 SAT 26 Mar 13:51:39 13:55:00 40° 99° (E) 13:58:19 437.505
ITAMSAT 1 26 Mar 13:51:55 13:55:10 17° 50° (NE) 13:58:25 435.822/435.867
Gurwin Techsat 1B 26 Mar 13:55:12 14:00:26 61° 68° (ENE) 14:05:42 435.225
DUCHIFAT 1 26 Mar 13:56:43 13:58:53 14° 273° (W) 14:01:02 145.980
NO-84 26 Mar 14:01:11 14:04:04 37° 211° (SSW) 14:07:08 435.350 FM
SPROUT 26 Mar 14:11:03 14:15:23 84° 103° (ESE) 14:19:41 437.525
BUGSAT 1 26 Mar 14:11:41 14:15:03 23° 268° (W) 14:18:26 437.445
LO-87 26 Mar 14:30:04 14:31:12 11° 305° (NW) 14:32:21 145.935 - 145.965
DX 1 26 Mar 14:39:20 14:43:46 77° 105° (ESE) 14:48:09 434.975-435.025
AO-7 26 Mar 14:58:48 15:06:53 58° 58° (ENE) 15:14:58 .
RS-15 26 Mar 15:01:06 15:13:19 89° 129° (SE) 15:25:48 29.354- 29.394
VELOX 1 26 Mar 15:02:20 15:06:24 34° 296° (WNW) 15:10:26 145.980
UKube-1 26 Mar 15:19:42 15:24:01 63° 290° (WNW) 15:28:18 .
Oscar 19 26 Mar 15:23:17 15:27:01 20° 271° (W) 15:30:47 437.125/150
BEESAT 26 Mar 15:23:36 15:26:52 18° 89° (E) 15:30:08 436.000
50 SAT 26 Mar 15:25:09 15:27:51 21° 298° (WNW) 15:30:33 437.505
ESTCUBE 1 26 Mar 15:28:17 15:29:24 11° 311° (NW) 15:30:31 437.505/2401.250
ITAMSAT 1 26 Mar 15:28:37 15:33:50 74° 70° (ENE) 15:39:05 435.822/435.867
PCSat 26 Mar 15:34:07 15:37:59 19° 3° (N) 15:41:49 145.827
Gurwin Techsat 1B 26 Mar 15:36:22 15:40:47 26° 268° (W) 15:45:15 435.225
ITUPSAT 1 26 Mar 15:39:25 15:43:17 24° 92° (E) 15:47:07 437.325
MOZHAYETS 4 26 Mar 15:42:00 15:43:54 12° 85° (E) 15:45:48
SPROUT 26 Mar 15:48:04 15:50:45 16° 304° (NW) 15:53:25 437.525
SO-50 26 Mar 16:08:33 16:12:58 46° 125° (SE) 16:17:21 436.795
DX 1 26 Mar 16:16:26 16:19:27 18° 304° (NW) 16:22:28 434.975-435.025
DOVE 4 26 Mar 16:39:06 16:41:46 15° 50° (NE) 16:44:30 437.250
AO-7 26 Mar 16:52:02 16:59:56 45° 261° (W) 17:07:52 .
UKube-1 26 Mar 16:57:39 16:59:14 12° 310° (NW) 17:00:48 .
KKS-1 26 Mar 16:59:26 17:02:12 16° 88° (E) 17:04:56 437.445
BEESAT 26 Mar 17:00:26 17:05:13 75° 289° (WNW) 17:09:58 436.000
XW-2F 26 Mar 17:04:01 17:05:13 11° 55° (NE) 17:06:24 145.980 - 146.000
LilacSat-2 26 Mar 17:04:57 17:06:35 12° 56° (NE) 17:08:13 437.200
HO-68 26 Mar 17:06:01 17:09:44 15° 34° (NE) 17:13:26 435.675
O/OREOS (USA 219) 26 Mar 17:09:46 17:12:57 19° 102° (ESE) 17:16:08 437.305
ITAMSAT 1 26 Mar 17:09:55 17:13:51 21° 270° (W) 17:17:49 435.822/435.867
YUBILEINY 26 Mar 17:15:09 17:21:23 21° 46° (NE) 17:27:35 435.215
RS-15 26 Mar 17:15:15 17:27:16 54° 342° (NNW) 17:39:20 29.354- 29.394
ITUPSAT 1 26 Mar 17:16:46 17:21:28 57° 291° (WNW) 17:26:07 437.325
MOZHAYETS 4 26 Mar 17:17:15 17:21:50 80° 103° (ESE) 17:26:24
PCSat 26 Mar 17:18:17 17:23:04 30° 28° (NNE) 17:27:50 145.827
CUTE-I 26 Mar 17:19:30 17:23:47 25° 56° (NE) 17:28:05 437.470
NUDT-PHONESAT 26 Mar 17:28:05 17:30:22 16° 59° (ENE) 17:32:38 437.300
XW-2D 26 Mar 17:28:12 17:30:55 19° 61° (ENE) 17:33:38 145.860 - 145.880
XW-2B 26 Mar 17:33:57 17:36:50 21° 61° (ENE) 17:39:41 145.730 - 145.750
KAITUO 1B 26 Mar 17:35:04 17:37:39 18° 60° (ENE) 17:40:14 145.475/437.950
STARS 26 Mar 17:35:28 17:38:19 17° 89° (E) 17:41:08 437.465
XW-2C 26 Mar 17:43:47 17:46:56 25° 64° (ENE) 17:50:06 145.795 - 145.815
SO-50 26 Mar 17:49:06 17:53:31 43° 326° (NW) 17:57:54 436.795
CUBESAT XI-V 26 Mar 18:09:27 18:14:01 52° 100° (E) 18:18:34 437.345
DOVE 4 26 Mar 18:13:45 18:18:30 67° 71° (ENE) 18:23:35 437.250
KKS-1 26 Mar 18:34:48 18:39:19 80° 290° (WNW) 18:43:48 437.445
XW-2F 26 Mar 18:34:56 18:38:43 77° 74° (ENE) 18:42:30 145.980 - 146.000
LilacSat-2 26 Mar 18:36:26 18:40:16 86° 80° (E) 18:44:07 437.200
BEESAT 26 Mar 18:39:32 18:42:16 15° 309° (NW) 18:44:59 436.000
O/OREOS (USA 219) 26 Mar 18:47:19 18:51:51 71° 302° (WNW) 18:56:28 437.305
HO-68 26 Mar 18:49:08 18:55:46 43° 57° (ENE) 19:02:25 435.675
UWE-3 26 Mar 18:51:45 18:52:40 11° 49° (NE) 18:53:33 435.000/436.395/437.385
MOZHAYETS 4 26 Mar 18:55:22 18:58:29 18° 304° (NW) 19:01:35
ITUPSAT 1 26 Mar 18:56:29 18:58:21 12° 312° (NW) 19:00:14 437.325
CUTE-I 26 Mar 18:58:00 19:03:23 73° 256° (WSW) 19:08:48 437.470
NUDT-PHONESAT 26 Mar 19:00:09 19:03:52 68° 257° (WSW) 19:07:37 437.300
XW-2D 26 Mar 19:01:04 19:04:48 54° 260° (W) 19:08:33 145.860 - 145.880
PCSat 26 Mar 19:01:40 19:07:09 90° 227° (SW) 19:12:36 145.827
XW-2B 26 Mar 19:07:04 19:10:46 48° 261° (W) 19:14:28 145.730 - 145.750
KAITUO 1B 26 Mar 19:07:39 19:11:20 56° 259° (WSW) 19:15:02 145.475/437.950
XW-2A 26 Mar 19:10:39 19:13:45 32° 67° (ENE) 19:16:52 145.665 - 145.685
STARS 26 Mar 19:10:44 19:15:12 75° 288° (WNW) 19:19:36 437.465
YUBILEINY 26 Mar 19:11:34 19:20:15 65° 73° (ENE) 19:28:55 435.215
AAUSAT CUBESAT 2 26 Mar 19:16:52 19:19:14 15° 56° (NE) 19:21:37 437.432
XW-2C 26 Mar 19:17:28 19:21:01 37° 263° (W) 19:24:35 145.795 - 145.815
CUBEBUG 2 26 Mar 19:22:08 19:26:00 25° 60° (ENE) 19:29:49 437.445
M-CUBED/EXP-1 PRIME 26 Mar 19:29:17 19:33:12 27° 99° (E) 19:37:10 437.505
RS-15 26 Mar 19:30:33 19:42:38 52° 15° (NNE) 19:54:29 29.354- 29.394
ZACube-1 26 Mar 19:30:41 19:32:56 14° 53° (NE) 19:35:10 437.345
SEEDS 26 Mar 19:31:09 19:34:54 33° 65° (ENE) 19:38:39 437.485
SO-50 26 Mar 19:31:31 19:35:02 21° 350° (N) 19:38:32 436.795
CUTE 1.7 + AOD 2 26 Mar 19:37:52 19:41:58 53° 70° (ENE) 19:46:05 437.475
CUBESAT XI-V 26 Mar 19:47:17 19:51:09 26° 299° (WNW) 19:55:00 437.345
DOVE 4 26 Mar 19:53:04 19:56:44 21° 272° (W) 20:00:34 437.250
AO-73 26 Mar 19:57:44 20:01:00 20° 59° (ENE) 20:04:15 145.935
XW-2F 26 Mar 20:11:42 20:13:22 12° 273° (W) 20:15:03 145.980 - 146.000
KKS-1 26 Mar 20:12:40 20:15:13 15° 307° (NW) 20:17:44 437.445
LilacSat-2 26 Mar 20:13:49 20:15:08 11° 274° (W) 20:16:27 437.200
UWE-3 26 Mar 20:23:40 20:28:10 51° 69° (ENE) 20:32:37 435.000/436.395/437.385
O/OREOS (USA 219) 26 Mar 20:29:01 20:32:08 18° 324° (NW) 20:35:15 437.305
DELFI C3 26 Mar 20:35:21 20:37:07 13° 55° (NE) 20:38:54 145.870
HO-68 26 Mar 20:36:26 20:43:25 54° 259° (W) 20:50:27 435.675
CUTE-I 26 Mar 20:41:46 20:44:24 14° 276° (W) 20:47:04 437.470
STRAND 1 26 Mar 20:42:12 20:47:09 46° 99° (E) 20:52:02 437.568
XW-2A 26 Mar 20:43:44 20:46:35 24° 266° (W) 20:49:27 145.665 - 145.685
PCSat 26 Mar 20:46:01 20:49:52 20° 252° (WSW) 20:53:43 145.827
STARS 26 Mar 20:48:31 20:50:49 14° 308° (NW) 20:53:06 437.465
AAUSAT CUBESAT 2 26 Mar 20:50:03 20:54:09 85° 256° (WSW) 20:58:18 437.432
Oscar 11 26 Mar 20:56:29 21:00:40 51° 69° (ENE) 21:04:52 .
CUBEBUG 2 26 Mar 20:57:37 21:02:19 58° 260° (W) 21:06:59 437.445
M-CUBED/EXP-1 PRIME 26 Mar 21:03:23 21:07:51 53° 297° (WNW) 21:12:24 437.505
ZACube-1 26 Mar 21:03:59 21:08:31 74° 73° (ENE) 21:12:59 437.345
SEEDS 26 Mar 21:06:50 21:10:36 33° 265° (W) 21:14:24 437.485
YUBILEINY 26 Mar 21:08:54 21:16:38 38° 277° (W) 21:24:21 435.215
SO-50 26 Mar 21:13:18 21:16:55 22° 14° (NNE) 21:20:30 436.795
CUTE 1.7 + AOD 2 26 Mar 21:14:56 21:18:08 21° 269° (W) 21:21:20 437.475
AO-73 26 Mar 21:32:20 21:36:50 69° 258° (WSW) 21:41:17 145.935
RS-15 26 Mar 21:44:15 21:56:45 87° 46° (NE) 22:08:46 29.354- 29.394
AO-85 26 Mar 21:50:37 21:54:25 31° 122° (ESE) 21:58:02 145.980
PRISM 26 Mar 21:54:09 21:55:34 11° 86° (E) 21:56:59 437.425
UWE-3 26 Mar 22:01:01 22:04:52 25° 268° (W) 22:08:41 435.000/436.395/437.385
LO-87 26 Mar 22:05:11 22:07:04 14° 57° (ENE) 22:08:56 145.935 - 145.965
DELFI C3 26 Mar 22:07:22 22:11:17 84° 77° (ENE) 22:15:15 145.870
STRAND 1 26 Mar 22:21:38 22:26:14 34° 299° (WNW) 22:30:48 437.568
Tancredo 1 26 Mar 22:24:54 22:27:30 24° 151° (SSE) 22:30:08 437.200
FO-29 26 Mar 22:25:05 22:27:26 12° 77° (ENE) 22:29:41 435.910
ISS 26 Mar 22:26:01 22:28:41 23° 150° (SSE) 22:31:23 437.550
AAUSAT CUBESAT 2 26 Mar 22:28:59 22:30:19 11° 275° (W) 22:31:38 437.432
HO-68 26 Mar 22:30:16 22:32:52 12° 281° (W) 22:35:29 435.675
Oscar 11 26 Mar 22:33:40 22:37:05 23° 269° (W) 22:40:32 .
TIGRISAT 26 Mar 22:36:17 22:39:06 16° 87° (E) 22:41:52 435.000
M-CUBED/EXP-1 PRIME 26 Mar 22:39:24 22:41:26 13° 317° (NW) 22:43:28 437.505
ZACube-1 26 Mar 22:42:18 22:45:16 17° 272° (W) 22:48:15 437.345
UNISAT 6 26 Mar 22:46:08 22:49:34 21° 90° (E) 22:52:54 437.425
SO-50 26 Mar 22:53:51 22:58:18 52° 38° (NE) 23:02:42 436.795
VELOX 1 26 Mar 22:55:23 22:57:22 13° 51° (NE) 22:59:22 145.980
AO-73 26 Mar 23:13:10 23:13:54 10° 277° (W) 23:14:37 145.935
ESTCUBE 1 26 Mar 23:17:55 23:22:08 43° 67° (ENE) 23:26:24 437.505/2401.250
PRISM 26 Mar 23:27:21 23:31:32 83° 107° (ESE) 23:35:43 437.425
AO-85 26 Mar 23:30:34 23:34:41 50° 321° (NW) 23:38:37 145.980
SPROUT 26 Mar 23:35:32 23:38:49 22° 59° (ENE) 23:42:06 437.525
LO-87 26 Mar 23:36:24 23:40:00 77° 257° (WSW) 23:43:40 145.935 - 145.965
DELFI C3 26 Mar 23:45:02 23:46:40 12° 274° (W) 23:48:19 145.870
RS-15 26 Mar 23:57:21 00:08:05 38° 253° (WSW) 00:18:27 29.354- 29.394
Tancredo 1 27 Mar 00:00:08 00:03:17 59° 169° (S) 00:06:25 437.200
BEESAT 3 27 Mar 00:01:01 00:04:55 59° 128° (SE) 00:08:52 437.485
ISS 27 Mar 00:01:33 00:04:47 58° 170° (S) 00:08:02 437.550
DX 1 27 Mar 00:05:40 00:09:06 23° 59° (ENE) 00:12:33 434.975-435.025
FO-29 27 Mar 00:07:50 00:14:06 64° 101° (E) 00:19:38 435.910
AIST 2D 27 Mar 00:10:40 00:13:20 20° 92° (E) 00:15:58 435.315
TIGRISAT 27 Mar 00:11:53 00:16:22 74° 287° (WNW) 00:20:42 435.000
BEESAT 2 27 Mar 00:17:38 00:21:21 39° 124° (SE) 00:25:08 435.950
UNISAT 6 27 Mar 00:22:15 00:26:39 57° 290° (WNW) 00:30:56 437.425
VELOX 1 27 Mar 00:28:40 00:33:02 68° 71° (ENE) 00:37:29 145.980
50 SAT 27 Mar 00:30:50 00:34:07 42° 69° (ENE) 00:37:26 437.505
SO-50 27 Mar 00:34:34 00:38:38 33° 238° (WSW) 00:42:40 436.795
NANOSAT C BR1 27 Mar 00:42:44 00:46:19 26° 93° (E) 00:49:51 145.865
UKube-1 27 Mar 00:44:20 00:48:16 35° 64° (ENE) 00:52:13 .
EO-79 27 Mar 00:47:26 00:51:14 30° 95° (E) 00:54:59 145.935-145.965
ESTCUBE 1 27 Mar 00:55:13 00:59:06 28° 266° (W) 01:03:01 437.505/2401.250
PRISM 27 Mar 01:03:45 01:06:18 16° 305° (NW) 01:08:50 437.425
SPROUT 27 Mar 01:10:08 01:14:23 59° 259° (WSW) 01:18:41 437.525
AO-85 27 Mar 01:12:57 01:15:55 19° 344° (NNW) 01:18:48 145.980
POLYITAN 1 27 Mar 01:15:30 01:19:42 55° 101° (E) 01:23:50 437.675
ITUPSAT 1 27 Mar 01:17:48 01:19:33 12° 47° (NE) 01:21:19 437.325
QB50P2 27 Mar 01:20:07 01:24:23 65° 102° (ESE) 01:28:35 145.880/145.840
DUCHIFAT 1 27 Mar 01:31:39 01:35:53 66° 103° (ESE) 01:40:04 145.980
O/OREOS (USA 219) 27 Mar 01:32:58 01:36:40 23° 41° (NE) 01:40:21 437.305
Tancredo 1 27 Mar 01:36:07 01:39:16 58° 191° (S) 01:42:26 437.200
ISS 27 Mar 01:37:53 01:41:08 61° 189° (S) 01:44:24 437.550
BEESAT 3 27 Mar 01:39:12 01:42:46 31° 330° (NNW) 01:46:24 437.485
DX 1 27 Mar 01:40:42 01:44:58 57° 258° (WSW) 01:49:19 434.975-435.025
AIST 2D 27 Mar 01:43:26 01:46:43 38° 291° (WNW) 01:49:59 435.315
BUGSAT 1 27 Mar 01:46:09 01:50:03 36° 97° (E) 01:53:53 437.445
Oscar 19 27 Mar 01:48:10 01:51:26 17° 87° (E) 01:54:42 437.125/150
TIGRISAT 27 Mar 01:50:04 01:52:17 14° 308° (NW) 01:54:29 435.000
FO-29 27 Mar 01:53:21 01:58:46 30° 305° (NW) 02:03:40 435.910
BEESAT 2 27 Mar 01:55:22 01:59:10 40° 325° (NW) 02:03:01 435.950
UNISAT 6 27 Mar 02:01:11 02:02:26 11° 311° (NW) 02:03:39 437.425
50 SAT 27 Mar 02:04:55 02:07:23 18° 268° (W) 02:09:53 437.505
Gurwin Techsat 1B 27 Mar 02:06:18 02:09:15 15° 85° (E) 02:12:12 435.225
VELOX 1 27 Mar 02:06:56 02:09:58 18° 271° (W) 02:13:03 145.980
NANOSAT C BR1 27 Mar 02:18:10 02:22:12 43° 293° (WNW) 02:26:12 145.865
UKube-1 27 Mar 02:20:24 02:24:19 33° 263° (W) 02:28:16 .
EO-79 27 Mar 02:23:08 02:27:04 37° 294° (WNW) 02:30:57 145.935-145.965
BEESAT 27 Mar 02:35:25 02:39:54 41° 65° (ENE) 02:44:24 436.000
